STARLINK-32261, 61530

Orbit data source: Space-Track

STARLINK-32261, 61530 is a payload satellite owned by SpaceX/Seattle (US) in LEO that was launched on Tue, 15 Oct 2024 UTC via an FALCON 9 launch vehicle from the Air Force Eastern Test Range (AFETR). Payload-class satellites include a variety of spacecraft equipped with specific instruments for various scientific and technological missions. These include communications satellites like Starlink; space stations such as the ISS; scientific satellites like the Hubble; Earth observation satellites from companies like Planet Labs, Umbra, and HawkEye 360; GPS; miniature CubeSats for education and research; and military/defense satellites.

Loading next visibility...
Identifier
61530, 2024-183X
Orbit
LEO
Country
Flag of USUS
Related business
Manufacturer
SpaceX/Seattle
Mission
Operational Commercial Communications
Bus & Motor
STARLINK V2M, Unknown motor
Mass
730 kg wet, ~700 kg dry
Launch date (UTC)
2024-10-15 (1 year ago)
Launch vehicle
FALCON 9
Launch site
Air Force Eastern Test Range (AFETR)
Object type
Payload
Rocket body
Debris
Shape & HBR
Box + 2 Pan, 17.7 m
Radar Cross Section
33.884 m², Large (>1 m²)

Expand to show TLE details & history
Last TLE update: 1 day ago

TLE from 1 day ago
0 STARLINK-32261
1 61530U 24183X   25348.80286031 -.00001079  00000-0 -24284-4 0  9996
2 61530  53.1587 176.9013 0001546  86.7867 273.3311 15.30200374 66659
Epoch: 2025-12-14T19:16Z
TLE epoch observation values (Epoch: 2025-12-14T19:16:07.130Z)
Latitude
-0°
Longitude
164.16105°
Altitude
476.052 km
Speed
7.629 km/s
True Right ascension
11h 47m 36s
True Declination
0° 00' 00"
Sunlit
Object was in daylight at epoch
Visualization orbit readout
Latitude
Unknown
Longitude
Unknown
Altitude
Unknown
Speed
Unknown
Apparent Right ascension
Unknown
Apparent Declination
Unknown
Sunlit
N/A
Visualization observer readout
Local Sidereal Time
18:10:34
Azimuth
Unknown
Elevation
Unknown
Doppler factor
Unknown
Orbital elements
Apogee altitude
476.53 km
Perigee altitude
474.411 km
Semi-major axis
6,853.608 km
Eccentricity
0.00015
Inclination
53.1587°
RAAN
176.9013°
Arg. of periapsis
86.7867°
True anomaly
273.31341°
Mean anomaly
273.3311°
Eccentric anomaly
273.32226°
Mean motion
3.82529 °/min
Orbital period
94.11 mins
BSTAR
-0.000024284
Loading maneuver chart data...
Computing Atmospheric mass density...
Loading historical data...
Loading historical data...
Loading historical data...
Loading historical data...
Loading historical data...
Loading historical data...
Loading historical data...

Documentation

Showing up to 5 results
|